Starlink 32121

operational
NORAD ID: 60264 Int'l Des: 2024-131 Owner: SPXS Country: US Constellation: starlink
LEOCIRCULAR

Starlink 32121について

説明を読み込み中...

リアルタイム位置

3D地球を読み込み中...

次回通過

高度履歴

Altitude vs Time

uPlot chart will show altitude changes over time

軌道要素

1 60264U 24131K 25304.27423062 -.00001114 00000-0 -25496-4 0 9998
2 60264 53.1611 293.6185 0001393 92.1014 268.0147 15.30187592 71955
Epoch: Oct 31, 2025 • Age: 15 hours

現在のステータス

高度 486.3 km
速度 7.62 km/s
衛星直下点 -33.03°S, 109.88°W
打ち上げ日 Jul 27, 2024
運用期間 1.2 years
タイプ internet

技術仕様

分類 Payload
質量 730.00 kg
乾燥質量 700.00 kg
総質量 730.00 kg
長さ 0.30 m
直径 4.10 m
スパン 29.00 m
形状 Box + pan
製造者 SPXS
バスタイプ Starlink V2M
フェーズステータス In Orbit
所有者/国 SPXS/US

大規模コンステレーション

Loading constellations...